TimeMST,TemperatureF,Dew PointF,Humidity,Sea Level PressureIn,VisibilityMPH,Wind Direction,Wind SpeedMPH,Gust SpeedMPH,PrecipitationIn,Events,Conditions,WindDirDegrees,DateUTC
12:53 AM,18.0,15.1,88,30.25,10.0,Calm,Calm,-,N/A,,Clear,0,2012-02-25 07:53:00
1:53 AM,19.0,15.1,85,30.24,10.0,NE,5.8,-,N/A,,Clear,50,2012-02-25 08:53:00
2:53 AM,19.9,15.1,81,30.20,10.0,ENE,4.6,-,N/A,,Clear,60,2012-02-25 09:53:00
3:53 AM,19.0,14.0,81,30.18,10.0,East,4.6,-,N/A,,Clear,90,2012-02-25 10:53:00
4:53 AM,17.1,12.9,84,30.17,10.0,NE,4.6,-,N/A,,Clear,50,2012-02-25 11:53:00
5:53 AM,19.9,14.0,78,30.16,10.0,ENE,4.6,-,N/A,,Clear,70,2012-02-25 12:53:00
6:53 AM,18.0,12.9,81,30.17,10.0,East,4.6,-,N/A,,Clear,90,2012-02-25 13:53:00
7:53 AM,25.0,18.0,75,30.17,10.0,ENE,4.6,-,N/A,,Clear,70,2012-02-25 14:53:00
8:53 AM,37.0,19.0,48,30.12,10.0,Calm,Calm,-,N/A,,Clear,0,2012-02-25 15:53:00
9:53 AM,44.1,10.0,25,30.07,10.0,NW,6.9,-,N/A,,Clear,310,2012-02-25 16:53:00
10:53 AM,51.1,12.9,22,30.02,10.0,South,11.5,-,N/A,,Clear,170,2012-02-25 17:53:00
11:53 AM,52.0,12.0,20,30.00,10.0,SW,13.8,23.0,N/A,,Clear,220,2012-02-25 18:53:00
12:53 PM,55.0,12.9,19,29.97,10.0,SSW,13.8,20.7,N/A,,Clear,200,2012-02-25 19:53:00
1:53 PM,55.0,14.0,20,29.92,10.0,SW,16.1,25.3,N/A,,Clear,230,2012-02-25 20:53:00
2:53 PM,55.9,10.9,17,29.89,10.0,WSW,23.0,31.1,N/A,,Clear,250,2012-02-25 21:53:00
3:53 PM,55.0,1.9,12,29.88,10.0,West,15.0,24.2,N/A,,Clear,270,2012-02-25 22:53:00
4:53 PM,54.0,5.0,14,29.88,10.0,West,17.3,23.0,N/A,,Clear,270,2012-02-25 23:53:00
5:53 PM,46.9,10.0,22,29.89,10.0,WSW,4.6,-,N/A,,Clear,250,2012-02-26 00:53:00
6:53 PM,37.9,10.9,33,29.94,10.0,WSW,3.5,-,N/A,,Clear,240,2012-02-26 01:53:00
7:53 PM,30.0,16.0,56,29.94,10.0,ENE,8.1,-,N/A,,Clear,60,2012-02-26 02:53:00
8:53 PM,28.9,17.1,61,29.91,10.0,ENE,10.4,-,N/A,,Clear,70,2012-02-26 03:53:00
9:53 PM,28.0,17.1,63,29.90,10.0,ESE,8.1,-,N/A,,Clear,110,2012-02-26 04:53:00
10:53 PM,27.0,17.1,66,29.88,10.0,East,10.4,-,N/A,,Clear,80,2012-02-26 05:53:00
11:53 PM,24.1,16.0,71,29.89,10.0,NE,6.9,-,N/A,,Clear,50,2012-02-26 06:53:00